OBJECT AV (43801 NORAD) Tracking and Keplerian Element Data

This shows tracking and keplerian element data for the satellite.

Feedback or suggestion? Click here.




ElementValue
Catalog43801
NameOBJECT AV
Epoch Orbit568
Epoch Day10.83193688
Epoch Year2019
RAAN84.5938
Inclination97.76
Eccentricity0.0015533
Argument of Perigee128.0603
Mean Anonmoly232.2022
Mean Motion14.95144583
Decay Rate1.38E-06
L11 43801U 18099AV 19010.83193688 .00000138 00000-0 17843-4 0 9999
L22 43801 97.7600 84.5938 0015533 128.0603 232.2022 14.95144583 5687

Live tracking and technical data element details for OBJECT AV (NORAD 43801). OBJECT AV can be tracked NOW for your location showing map with azimuth and elevation plus other details from your city location.

Track the satellite on the map from your city or location and see movement details for azimuth, elevation, latitude, longitude, range, height, and movement on the map or in text.







IsCatalogInMostPopularTable: catalog: 43801, numindb: 16
Update: records affected: 1



GetName: 43801 OBJECT AV

Hit Count: updated at: Thu, 17 Jan 2019 16:01:54 GMT